Satellite: ANTELSAT Catalog number: 40034 Epoch time: 14268.64214519 Element set: 286 Inclination: 097.9677 deg RA of node: 161.2802 deg Eccentricity: 0.0060203 Arg of perigee: 246.5454 deg Mean anomaly: 112.9413 deg Mean motion: 14.71418127 rev/day Decay rate: 1.681e-05 rev/day^2 Epoch rev: 1437 Checksum: 282
/EX SB KEPS @ AMSAT $ORB14268.W Orbital Elements 14268.WEATHER
HR AMSAT ORBITAL ELEMENTS FOR WEATHER SATELLITES FROM WA5QGD FORT WORTH,TX September 25, 2014 BID: ORB14268.W TO ALL RADIO AMATEURS BT
Satellite: MET-2/21 Catalog number: 22782 Epoch time: 14268.15903218 Element set: 181 Inclination: 082.5463 deg RA of node: 093.9851 deg Eccentricity: 0.0021693 Arg of perigee: 347.8273 deg Mean anomaly: 149.6537 deg Mean motion: 13.83744280 rev/day Decay rate: 4.3e-07 rev/day^2 Epoch rev: 6394 Checksum: 319
Satellite: OKEAN-4 Catalog number: 23317 Epoch time: 14268.16829881 Element set: 662 Inclination: 082.5395 deg RA of node: 334.1850 deg Eccentricity: 0.0022071 Arg of perigee: 126.9815 deg Mean anomaly: 292.7966 deg Mean motion: 14.85731195 rev/day Decay rate: 9.98e-06 rev/day^2 Epoch rev: 7795 Checksum: 347
Satellite: NOAA-14 Catalog number: 23455 Epoch time: 14268.48424016 Element set: 923 Inclination: 098.7732 deg RA of node: 350.1177 deg Eccentricity: 0.0010565 Arg of perigee: 113.6947 deg Mean anomaly: 310.1445 deg Mean motion: 14.13988048 rev/day Decay rate: 1.8e-07 rev/day^2 Epoch rev: 1812 Checksum: 292
Satellite: NOAA-15 Catalog number: 25338 Epoch time: 14268.44083274 Element set: 360 Inclination: 098.7602 deg RA of node: 262.1402 deg Eccentricity: 0.0010166 Arg of perigee: 211.3654 deg Mean anomaly: 314.1197 deg Mean motion: 14.25472120 rev/day Decay rate: 1.45e-06 rev/day^2 Epoch rev: 85112 Checksum: 265
Satellite: RESURS Catalog number: 25394 Epoch time: 14268.11275576 Element set: 768 Inclination: 098.4262 deg RA of node: 228.3350 deg Eccentricity: 0.0001136 Arg of perigee: 028.3423 deg Mean anomaly: 033.5998 deg Mean motion: 14.24399678 rev/day Decay rate: 2.7e-07 rev/day^2 Epoch rev: 84254 Checksum: 318
Satellite: FENGYUN1 Catalog number: 25730 Epoch time: 14266.96987743 Element set: 257 Inclination: 098.9191 deg RA of node: 227.4929 deg Eccentricity: 0.0021132 Arg of perigee: 186.3903 deg Mean anomaly: 215.7946 deg Mean motion: 14.12117316 rev/day Decay rate: 2.077e-05 rev/day^2 Epoch rev: 79146 Checksum: 327
Satellite: OKEAN-0 Catalog number: 25860 Epoch time: 14267.94110441 Element set: 371 Inclination: 098.0560 deg RA of node: 231.2848 deg Eccentricity: 0.0002033 Arg of perigee: 101.9889 deg Mean anomaly: 324.2106 deg Mean motion: 14.75404846 rev/day Decay rate: 7.16e-06 rev/day^2 Epoch rev: 81686 Checksum: 290
Satellite: NOAA-16 Catalog number: 26536 Epoch time: 14268.41779449 Element set: 858 Inclination: 098.9798 deg RA of node: 329.1647 deg Eccentricity: 0.0009612 Arg of perigee: 258.4735 deg Mean anomaly: 101.5358 deg Mean motion: 14.13038416 rev/day Decay rate: 6.7e-07 rev/day^2 Epoch rev: 72226 Checksum: 347
Satellite: NOAA-17 Catalog number: 27453 Epoch time: 14268.40746900 Element set: 749 Inclination: 098.3208 deg RA of node: 262.8721 deg Eccentricity: 0.0010841 Arg of perigee: 235.7202 deg Mean anomaly: 124.2952 deg Mean motion: 14.24780002 rev/day Decay rate: 1.36e-06 rev/day^2 Epoch rev: 63695 Checksum: 295
Satellite: NOAA-18 Catalog number: 28654 Epoch time: 14268.45683922 Element set: 267 Inclination: 099.1598 deg RA of node: 250.0225 deg Eccentricity: 0.0013921 Arg of perigee: 347.1180 deg Mean anomaly: 177.0069 deg Mean motion: 14.12065086 rev/day Decay rate: 2.33e-06 rev/day^2 Epoch rev: 48171 Checksum: 308
Satellite: NOAA-19 Catalog number: 33591 Epoch time: 14268.50183324 Element set: 403 Inclination: 098.9539 deg RA of node: 213.2790 deg Eccentricity: 0.0013799 Arg of perigee: 192.4389 deg Mean anomaly: 301.7203 deg Mean motion: 14.11766654 rev/day Decay rate: 2.29e-06 rev/day^2 Epoch rev: 29014 Checksum: 313
/EX SB KEPS @ AMSAT $ORB14268.M Orbital Elements 14268.MISC
HR AMSAT ORBITAL ELEMENTS FOR MANNED AND MISCELLANEOUS SATELLITES FROM WA5QGD FORT WORTH,TX September 25, 2014 BID: ORB14268.M TO ALL RADIO AMATEURS BT
Satellite: HUBBLE Catalog number: 20580 Epoch time: 14266.96955307 Element set: 120 Inclination: 028.4694 deg RA of node: 107.6130 deg Eccentricity: 0.0002766 Arg of perigee: 267.7109 deg Mean anomaly: 220.4993 deg Mean motion: 15.05779391 rev/day Decay rate: 2.315e-05 rev/day^2 Epoch rev: 13962 Checksum: 301
Satellite: ISS Catalog number: 25544 Epoch time: 14268.96548454 Element set: 157 Inclination: 051.6456 deg RA of node: 320.0840 deg Eccentricity: 0.0001796 Arg of perigee: 125.1033 deg Mean anomaly: 235.0646 deg Mean motion: 15.50638815 rev/day Decay rate: 1.3210e-04 rev/day^2 Epoch rev: 90696 Checksum: 293
Satellite: CO-58 Catalog number: 28895 Epoch time: 14267.31492924 Element set: 881 Inclination: 097.8284 deg RA of node: 104.0170 deg Eccentricity: 0.0018456 Arg of perigee: 060.8119 deg Mean anomaly: 299.4927 deg Mean motion: 14.62036089 rev/day Decay rate: 6.30e-06 rev/day^2 Epoch rev: 47473 Checksum: 341
Satellite: FALCON Catalog number: 30776 Epoch time: 14267.17943696 Element set: 967 Inclination: 035.4290 deg RA of node: 220.3581 deg Eccentricity: 0.0000673 Arg of perigee: 177.9226 deg Mean anomaly: 311.4329 deg Mean motion: 15.17506552 rev/day Decay rate: 9.407e-05 rev/day^2 Epoch rev: 41577 Checksum: 316
Satellite: MAST Catalog number: 31126 Epoch time: 14266.93323765 Element set: 161 Inclination: 097.9261 deg RA of node: 242.7379 deg Eccentricity: 0.0092816 Arg of perigee: 047.1359 deg Mean anomaly: 012.2154 deg Mean motion: 14.55401986 rev/day Decay rate: 7.80e-06 rev/day^2 Epoch rev: 39475 Checksum: 311
Satellite: CAPE1 Catalog number: 31130 Epoch time: 14267.20331168 Element set: 167 Inclination: 097.9474 deg RA of node: 239.7739 deg Eccentricity: 0.0099976 Arg of perigee: 064.5712 deg Mean anomaly: 296.5792 deg Mean motion: 14.54601826 rev/day Decay rate: 1.142e-05 rev/day^2 Epoch rev: 39420 Checksum: 323
Satellite: COMPASS Catalog number: 32787 Epoch time: 14267.14397634 Element set: 54 Inclination: 097.6909 deg RA of node: 317.8138 deg Eccentricity: 0.0013246 Arg of perigee: 207.9614 deg Mean anomaly: 152.0893 deg Mean motion: 14.88364204 rev/day Decay rate: 3.256e-05 rev/day^2 Epoch rev: 34690 Checksum: 323
Satellite: AAUSAT2 Catalog number: 32788 Epoch time: 14268.10758273 Element set: 42 Inclination: 097.6919 deg RA of node: 319.8604 deg Eccentricity: 0.0012744 Arg of perigee: 202.7443 deg Mean anomaly: 157.3212 deg Mean motion: 14.89132791 rev/day Decay rate: 3.360e-05 rev/day^2 Epoch rev: 34711 Checksum: 304
Satellite: DO-64 Catalog number: 32789 Epoch time: 14268.15305899 Element set: 85 Inclination: 097.7108 deg RA of node: 327.4015 deg Eccentricity: 0.0012024 Arg of perigee: 186.3709 deg Mean anomaly: 226.7123 deg Mean motion: 14.94384763 rev/day Decay rate: 7.395e-05 rev/day^2 Epoch rev: 34742 Checksum: 335
Satellite: CO-66 Catalog number: 32791 Epoch time: 14267.19228593 Element set: 37 Inclination: 097.6902 deg RA of node: 316.4136 deg Eccentricity: 0.0013835 Arg of perigee: 212.7347 deg Mean anomaly: 147.3013 deg Mean motion: 14.86931263 rev/day Decay rate: 2.474e-05 rev/day^2 Epoch rev: 34676 Checksum: 320
Satellite: RS-30 Catalog number: 32953 Epoch time: 14268.51685680 Element set: 332 Inclination: 082.5097 deg RA of node: 138.8481 deg Eccentricity: 0.0018105 Arg of perigee: 302.1972 deg Mean anomaly: 057.7350 deg Mean motion: 12.43050448 rev/day Decay rate: 1.0e-07 rev/day^2 Epoch rev: 28772 Checksum: 292
Satellite: METEOR-M Catalog number: 35865 Epoch time: 14268.14659654 Element set: 931 Inclination: 098.5404 deg RA of node: 312.4774 deg Eccentricity: 0.0002509 Arg of perigee: 144.9869 deg Mean anomaly: 215.1478 deg Mean motion: 14.21929667 rev/day Decay rate: -6.0e-08 rev/day^2 Epoch rev: 26054 Checksum: 327
Satellite: RS-38 Catalog number: 35869 Epoch time: 14269.00608906 Element set: 839 Inclination: 098.5315 deg RA of node: 313.0607 deg Eccentricity: 0.0004566 Arg of perigee: 151.8830 deg Mean anomaly: 208.3080 deg Mean motion: 14.22228126 rev/day Decay rate: 1.14e-06 rev/day^2 Epoch rev: 26076 Checksum: 299
Satellite: JUGNU Catalog number: 37839 Epoch time: 14266.67679907 Element set: 702 Inclination: 019.9625 deg RA of node: 018.0076 deg Eccentricity: 0.0019263 Arg of perigee: 349.9989 deg Mean anomaly: 149.7021 deg Mean motion: 14.12338546 rev/day Decay rate: 4.05e-06 rev/day^2 Epoch rev: 15249 Checksum: 335
Satellite: SRMSAT Catalog number: 37841 Epoch time: 14267.79927078 Element set: 704 Inclination: 019.9731 deg RA of node: 032.5260 deg Eccentricity: 0.0011950 Arg of perigee: 299.2033 deg Mean anomaly: 191.3962 deg Mean motion: 14.10375823 rev/day Decay rate: 3.99e-06 rev/day^2 Epoch rev: 15243 Checksum: 305
Satellite: RAX-2 Catalog number: 37853 Epoch time: 14267.19669519 Element set: 917 Inclination: 101.7058 deg RA of node: 344.1088 deg Eccentricity: 0.0213081 Arg of perigee: 130.2002 deg Mean anomaly: 288.7563 deg Mean motion: 14.90520113 rev/day Decay rate: 9.528e-05 rev/day^2 Epoch rev: 15740 Checksum: 299
Satellite: AUBIESAT Catalog number: 37854 Epoch time: 14268.16538150 Element set: 915 Inclination: 101.7088 deg RA of node: 347.7608 deg Eccentricity: 0.0210503 Arg of perigee: 124.0438 deg Mean anomaly: 294.6310 deg Mean motion: 14.92014704 rev/day Decay rate: 1.2770e-04 rev/day^2 Epoch rev: 15761 Checksum: 286
Satellite: HRBE Catalog number: 37855 Epoch time: 14267.25252705 Element set: 931 Inclination: 101.7103 deg RA of node: 345.6129 deg Eccentricity: 0.0212974 Arg of perigee: 128.2441 deg Mean anomaly: 233.8143 deg Mean motion: 14.91221131 rev/day Decay rate: 1.0082e-04 rev/day^2 Epoch rev: 15743 Checksum: 266
